This is the latest recevied weather packets stored in our database for station/object SQ6XL-13. If no packets are shown the sender has not sent any weather packets the latest 10 day(s).
| Time | Temp. | Humidity | Pressure | Rain* | Wind** | Luminosity | Snow |
|---|---|---|---|---|---|---|---|
| 1777615047 | 12.22° C | 61% | 1028.1 hPa | 0 mm | - | - | - |
| 1777614511 | 11.67° C | 61% | 1028.1 hPa | 0 mm | - | - | - |
| 1777613917 | 11.11° C | 62% | 1028.2 hPa | 0 mm | - | - | - |
| 1777613352 | 11.11° C | 63% | 1028 hPa | 0 mm | - | - | - |
| 1777612762 | 10.56° C | 64% | 1028 hPa | 0 mm | - | - | - |
| 1777612222 | 10.56° C | 65% | 1028 hPa | 0 mm | - | - | - |
| 1777611632 | 10° C | 66% | 1028.1 hPa | 0 mm | - | - | - |
| 1777611113 | 10° C | 66% | 1028.1 hPa | 0 mm | - | - | - |
| 1777610587 | 10° C | 67% | 1028 hPa | 0 mm | - | - | - |
| 1777610067 | 9.44° C | 67% | 1027.9 hPa | 0 mm | - | - | - |
| 1777609582 | 9.44° C | 67% | 1028.1 hPa | 0 mm | - | - | - |
| 1777609022 | 9.44° C | 68% | 1028 hPa | 0 mm | - | - | - |
| 1777608421 | 8.89° C | 69% | 1027.9 hPa | 0 mm | - | - | - |
| 1777607937 | 8.89° C | 70% | 1027.8 hPa | 0 mm | - | - | - |
| 1777607411 | 8.33° C | 71% | 1027.9 hPa | 0 mm | - | - | - |
| 1777606862 | 8.33° C | 71% | 1027.8 hPa | 0 mm | - | - | - |
| 1777606327 | 8.33° C | 72% | 1028 hPa | 0 mm | - | - | - |
| 1777605727 | 8.33° C | 72% | 1027.8 hPa | 0 mm | - | - | - |
| 1777605211 | 7.78° C | 73% | 1027.9 hPa | 0 mm | - | - | - |
| 1777604667 | 7.78° C | 73% | 1027.9 hPa | 0 mm | - | - | - |
| 1777604131 | 7.78° C | 73% | 1027.9 hPa | 0 mm | - | - | - |
| 1777603542 | 7.78° C | 72% | 1027.9 hPa | 0 mm | - | - | - |
| 1777602977 | 7.78° C | 72% | 1027.9 hPa | 0 mm | - | - | - |
| 1777602487 | 8.33° C | 73% | 1027.8 hPa | 0 mm | - | - | - |
| 1777601977 | 8.33° C | 73% | 1027.8 hPa | 0 mm | - | - | - |
* Rain latest hour (hover to see other rain measurements)
** Current wind speed in m/s (hover to see current wind gust speed)